Weather History for Beaufort, SC

Change the Weather History Date:

Saturday, February 9, 2013

  Actual Average (KNBC) Record (KNBC)
Temperature  
Mean Temperature 52 °F -  
Max Temperature 62 °F 58 °F 64 °F (2014)
Min Temperature 42 °F 37 °F 35 °F (2014)
Degree Days  
Heating Degree Days 13    
Growing Degree Days 2 (Base 50)    
Moisture  
Dew Point 36 °F    
Average Humidity 62    
Maximum Humidity 100    
Minimum Humidity 24    
Precipitation  
Precipitation 0.00 in - - ()
Sea Level Pressure  
Sea Level Pressure 30.24 in    
Wind  
Wind Speed 7 mph (NNE)    
Max Wind Speed 12 mph    
Max Gust Speed 16 mph    
Visibility 8 miles    
Events      
Averages and records for this station are not official NWS values.
T = Trace of Precipitation, MM = Missing Value Source: NWS Daily Summary

Daily Weather History Graph

Daily Weather History Graph

Search for Another Location

Airport:

Trip Planner

Search our weather history database for the weather conditions in past years. The results will help you decide how hot, cold, wet, or windy it might be!

Date:

Astronomy

Feb. 09, 2013 Rise Set
Actual Time 7:10 AM EST 6:03 PM EST
Civil Twilight 6:45 AM EST 6:28 PM EST
Nautical Twilight 6:16 AM EST 6:57 PM EST
Astronomical Twilight 5:47 AM EST 7:26 PM EST
Moon 6:21 AM EST (2/9) 5:42 PM EST (2/9)
Length of Visible Light 11h 43m
Length of Day
10h 52m
Waning Crescent, 0% of the Moon is Illuminated
Feb 9
Waning Crescent
Feb 10
New
Feb 17
First Quarter
Feb 25
Full
Mar 4
Last Quarter

Hourly Weather History & Observations

Time (EST) Temp. Windchill Dew Point Humidity Pressure Visibility Wind Dir Wind Speed Gust Speed Precip Events Conditions
12:15 AM 53.6 °F - 46.4 °F 77% 30.08 in 10.0 mi NW 9.2 mph - N/A   Clear
12:35 AM 53.6 °F - 46.4 °F 77% 30.08 in 10.0 mi NW 10.4 mph - N/A   Clear
12:55 AM 53.6 °F - 46.4 °F 77% 30.09 in 10.0 mi NW 8.1 mph - N/A   Clear
1:15 AM 53.6 °F - 46.4 °F 77% 30.09 in 10.0 mi NW 11.5 mph - N/A   Clear
1:35 AM 51.8 °F - 46.4 °F 82% 30.09 in 10.0 mi NW 9.2 mph 16.1 mph N/A   Clear
1:55 AM 51.8 °F - 46.4 °F 82% 30.10 in 10.0 mi NW 9.2 mph - N/A   Clear
2:15 AM 51.8 °F - 44.6 °F 76% 30.10 in 10.0 mi NW 9.2 mph - N/A   Clear
2:35 AM 50.0 °F - 44.6 °F 82% 30.10 in 10.0 mi North 6.9 mph - N/A   Clear
2:55 AM 50.0 °F - 42.8 °F 76% 30.11 in 10.0 mi North 6.9 mph - N/A   Clear
3:15 AM 48.2 °F - 41.0 °F 76% 30.11 in 10.0 mi NNW 6.9 mph - N/A   Clear
3:35 AM 48.2 °F - 41.0 °F 76% 30.12 in 7.0 mi NNW 8.1 mph - N/A   Clear
3:55 AM 46.4 °F 42.4 °F 41.0 °F 81% 30.13 in 7.0 mi NNW 8.1 mph - N/A   Clear
4:15 AM 46.4 °F 43.5 °F 39.2 °F 76% 30.14 in 7.0 mi NNW 5.8 mph - N/A   Clear
4:35 AM 46.4 °F 43.5 °F 39.2 °F 76% 30.16 in 10.0 mi NNW 5.8 mph - N/A   Clear
4:55 AM 44.6 °F 42.2 °F 37.4 °F 76% 30.16 in 7.0 mi North 4.6 mph - N/A   Clear
5:15 AM 46.4 °F 42.9 °F 35.6 °F 66% 30.18 in 7.0 mi North 6.9 mph - N/A   Clear
5:35 AM 44.6 °F 40.7 °F 35.6 °F 71% 30.19 in 7.0 mi North 6.9 mph - N/A   Clear
5:55 AM 44.6 °F 40.7 °F 35.6 °F 71% 30.19 in 7.0 mi North 6.9 mph - N/A   Clear
6:15 AM 44.6 °F 39.7 °F 35.6 °F 71% 30.20 in 10.0 mi North 9.2 mph - N/A   Clear
6:35 AM 44.6 °F 40.2 °F 35.6 °F 71% 30.21 in 10.0 mi North 8.1 mph - N/A   Clear
6:55 AM 44.6 °F 40.7 °F 33.8 °F 66% 30.22 in 10.0 mi North 6.9 mph - N/A   Clear
7:15 AM 44.6 °F 39.7 °F 33.8 °F 66% 30.22 in 7.0 mi North 9.2 mph - N/A   Clear
7:35 AM 44.6 °F 40.7 °F 33.8 °F 66% 30.24 in 7.0 mi North 6.9 mph - N/A   Clear
7:55 AM 44.6 °F 40.2 °F 33.8 °F 66% 30.24 in 7.0 mi North 8.1 mph - N/A   Clear
8:15 AM 46.4 °F 42.9 °F 33.8 °F 62% 30.25 in 7.0 mi North 6.9 mph - N/A   Clear
8:35 AM 46.4 °F 42.9 °F 33.8 °F 62% 30.26 in 5.0 mi North 6.9 mph - N/A   Haze
8:55 AM 48.2 °F - 33.8 °F 58% 30.27 in 7.0 mi NNE 10.4 mph - N/A   Clear
9:15 AM 48.2 °F - 32.0 °F 54% 30.28 in 7.0 mi NNE 9.2 mph - N/A   Clear
9:35 AM 50.0 °F - 33.8 °F 54% 30.28 in 5.0 mi NNE 10.4 mph - N/A   Haze
9:55 AM 50.0 °F - 32.0 °F 50% 30.29 in 7.0 mi NE 8.1 mph - N/A   Clear
10:15 AM 51.8 °F - 32.0 °F 47% 30.29 in 5.0 mi NNE 9.2 mph - N/A   Haze
10:35 AM 51.8 °F - 32.0 °F 47% 30.29 in 7.0 mi NE 6.9 mph - N/A   Clear
10:55 AM 51.8 °F - 32.0 °F 47% 30.29 in 7.0 mi NE 5.8 mph - N/A   Clear
11:15 AM 53.6 °F - 32.0 °F 44% 30.29 in 5.0 mi NE 6.9 mph - N/A   Haze
11:35 AM 53.6 °F - 32.0 °F 44% 30.28 in 5.0 mi ENE 6.9 mph - N/A   Haze
11:55 AM 55.4 °F - 32.0 °F 41% 30.28 in 5.0 mi NE 4.6 mph - N/A   Haze
12:15 PM 55.4 °F - 30.2 °F 38% 30.28 in 7.0 mi NE 5.8 mph - N/A   Clear
12:35 PM 57.2 °F - 32.0 °F 38% 30.27 in 10.0 mi East 6.9 mph - N/A   Clear
12:55 PM 59.0 °F - 30.2 °F 34% 30.27 in 7.0 mi NE 6.9 mph - N/A   Clear
1:15 PM 60.8 °F - 30.2 °F 31% 30.26 in 7.0 mi ENE 5.8 mph - N/A   Clear
1:35 PM 60.8 °F - 30.2 °F 31% 30.25 in 10.0 mi ENE 5.8 mph - N/A   Clear
1:55 PM 60.8 °F - 28.4 °F 29% 30.25 in 10.0 mi NNE 8.1 mph - N/A   Clear
2:15 PM 62.6 °F - 28.4 °F 27% 30.24 in 10.0 mi NE 6.9 mph - N/A   Clear
2:35 PM 62.6 °F - 26.6 °F 26% 30.24 in 10.0 mi NE 5.8 mph - N/A   Clear
2:55 PM 62.6 °F - 24.8 °F 24% 30.25 in 10.0 mi NW 4.6 mph - N/A   Clear
3:15 PM 62.6 °F - 24.8 °F 24% 30.24 in 10.0 mi NNW 3.5 mph - N/A   Clear
3:35 PM 62.6 °F - 26.6 °F 26% 30.24 in 10.0 mi NE 4.6 mph - N/A   Clear
3:55 PM 62.6 °F - 26.6 °F 26% 30.24 in 10.0 mi NNE 5.8 mph - N/A   Clear
4:15 PM 62.6 °F - 24.8 °F 24% 30.23 in 10.0 mi ENE 5.8 mph - N/A   Clear
4:35 PM 60.8 °F - 33.8 °F 36% 30.24 in 10.0 mi SSE 8.1 mph - N/A   Clear
4:55 PM 59.0 °F - 33.8 °F 39% 30.24 in 10.0 mi SSE 5.8 mph - N/A   Clear
5:15 PM 55.4 °F - 33.8 °F 44% 30.25 in 10.0 mi SSE 3.5 mph - N/A   Clear
5:35 PM 55.4 °F - 35.6 °F 47% 30.25 in 10.0 mi SSE 4.6 mph - N/A   Clear
5:55 PM 53.6 °F - 37.4 °F 54% 30.25 in 10.0 mi SSE 3.5 mph - N/A   Clear
6:15 PM 51.8 °F - 37.4 °F 58% 30.26 in 10.0 mi SSE 3.5 mph - N/A   Clear
6:35 PM 50.0 °F - 39.2 °F 66% 30.26 in 10.0 mi Calm Calm - N/A   Clear
6:55 PM 48.2 °F - 37.4 °F 66% 30.27 in 7.0 mi Calm Calm - N/A   Clear
7:15 PM 46.4 °F - 37.4 °F 71% 30.27 in 10.0 mi Calm Calm - N/A   Clear
7:35 PM 46.4 °F - 37.4 °F 71% 30.28 in 7.0 mi Calm Calm - N/A   Clear
7:55 PM 46.4 °F - 37.4 °F 71% 30.29 in 7.0 mi Calm Calm - N/A   Clear
8:15 PM 44.6 °F - 39.2 °F 81% 30.30 in 7.0 mi Calm Calm - N/A   Clear
8:35 PM 44.6 °F - 39.2 °F 81% 30.31 in 7.0 mi Calm Calm - N/A   Clear
8:55 PM 44.6 °F - 39.2 °F 81% 30.32 in 7.0 mi Calm Calm - N/A   Clear
9:15 PM 44.6 °F - 39.2 °F 81% 30.34 in 7.0 mi Calm Calm - N/A   Clear
9:35 PM 44.6 °F - 41.0 °F 87% 30.34 in 10.0 mi Calm Calm - N/A   Clear
9:55 PM 42.8 °F - 41.0 °F 93% 30.34 in 7.0 mi Calm Calm - N/A   Clear
10:15 PM 42.8 °F - 41.0 °F 93% 30.34 in 10.0 mi Calm Calm - N/A   Clear
10:35 PM 42.8 °F - 41.0 °F 93% 30.34 in 10.0 mi Calm Calm - N/A   Clear
10:55 PM 42.8 °F - 41.0 °F 93% 30.33 in 10.0 mi Calm Calm - N/A   Clear
11:15 PM 42.8 °F - 42.8 °F 100% 30.33 in 7.0 mi Calm Calm - N/A   Clear
11:35 PM 42.8 °F - 42.8 °F 100% 30.33 in 10.0 mi Calm Calm - N/A   Clear
11:55 PM 42.8 °F - 41.0 °F 93% 30.34 in 5.0 mi Calm Calm - N/A   Clear